Location: Newark
(37.9717°N, 99.9089°W)
Time: 11:35:14
(UTC+00:00)

ISS - Visible Passes

Search period start: 27 September 2021 00:00
Search period end: 07 October 2021 00:00
Orbit: 417 x 423 km, 51.6° (Epoch: 27 September)

Date Brightness Start Highest point End Pass type
(mag) Time Alt. Az. Time Alt. Az. Time Alt. Az.
29 Sep -0.5 02:53:57 10° NNW 02:54:00 10° NNW 02:54:00 10° NNW visible
30 Sep -1.4 02:06:56 10° NNW 02:08:29 15° N 02:08:29 15° N visible
01 Oct -1.3 01:20:04 10° N 01:21:33 12° NNE 01:23:01 10° NE visible
01 Oct -0.5 02:55:41 10° NW 02:55:59 12° NW 02:55:59 12° NW visible
02 Oct -2.0 02:08:32 10° NNW 02:10:34 26° N 02:10:34 26° N visible
03 Oct -2.1 01:21:27 10° NNW 01:24:08 22° NNE 01:25:12 19° NE visible
03 Oct -0.3 02:57:51 10° WNW 02:58:11 12° WNW 02:58:11 12° WNW visible
04 Oct -2.8 02:10:27 10° NW 02:12:55 46° NW 02:12:55 46° NW visible
05 Oct -3.5 01:23:10 10° NW 01:26:29 52° NE 01:27:44 31° E visible
06 Oct -1.8 02:12:57 10° WNW 02:15:42 25° SW 02:15:42 25° SW visible
